Weather in Kushkopala

Russia / Arkhangel'skaya Oblast'     63°50′14″N   44°44′29″E
temp.,
°C
wind,
m/s
gust,
m/s
humid.,
%
clouds,
%
prec.,
mm/h
press.,
hPa
HPBL,
m
8 march, mon
mon800:00−21ne239965 0.0 100544
03:00−22nne239874 0.0 100679
06:00−23nne369897 0.1 1006203
09:00−23nne369597 0.1 1007282
12:00−20nne369185 0.0 1008420
15:00−19n479093 0.0 1009512
18:00−24n3895100 0.0 1011317
21:00−29n369691 0.0 1014155
9 march, tue
tue900:00−31n259726 0.0 101593
03:00−33n239813 0.0 101762
06:00−34nnw23980 0.0 101847
09:00−30nnw13940 0.0 1020154
12:00−23nw238758 0.0 1020310
15:00−21wnw248855 0.0 1020359
18:00−22w259897 0.0 1019110
21:00−22w389899 0.1 1020270
10 march, wed
wed1000:00−22wsw259899 0.2 1019119
03:00−23w229999 0.3 102051
06:00−25wnw12100100 0.0 102019
09:00−21w139691 0.0 1021118
12:00−13w368864 0.0 1019312
15:00−10wnw5109173 0.0 1018508
18:00−8wnw51392100 0.2 1018681
21:00−9nw51287100 0.5 1019604
11 march, thu
thu1100:00−13wnw51285100 0.0 1019387
03:00−17wnw41188100 0.0 1020307
06:00−19wnw3119471 0.0 1020269
09:00−16wnw4108735 0.0 1020355
12:00−12w49790 0.0 1019480
15:00−10w511780 0.0 1019753
18:00−12w412840 0.0 1018488
21:00−13wsw414822 0.0 1017480
12 march, fri
fri1200:00−13wsw4138290 0.0 1016556
03:00−13wsw4138695 0.0 1015553
06:00−13wsw41191100 0.0 1014465
09:00−12wsw41091100 0.0 1013432
12:00−9sw4889100 0.0 1013431
15:00−5sw4108273 0.0 1012561
18:00−8ssw412896 0.0 1011380
21:00−10ssw413883 0.0 1012392